TimeCDT,TemperatureF,Dew PointF,Humidity,Sea Level PressureIn,VisibilityMPH,Wind Direction,Wind SpeedMPH,Gust SpeedMPH,PrecipitationIn,Events,Conditions,WindDirDegrees,DateUTC
12:28 AM,75.2,69.8,83,29.96,10.0,SE,17.3,26.5,N/A,,Overcast,140,2013-04-18 05:28:00
12:53 AM,75.0,69.1,82,29.94,10.0,SE,13.8,-,N/A,,Overcast,140,2013-04-18 05:53:00
1:45 AM,75.2,69.8,83,29.95,10.0,SE,13.8,26.5,N/A,,Overcast,140,2013-04-18 06:45:00
1:53 AM,75.0,69.1,82,29.93,10.0,SE,15.0,-,N/A,,Overcast,140,2013-04-18 06:53:00
2:37 AM,73.4,69.8,88,29.92,10.0,SE,13.8,-,N/A,,Mostly Cloudy,140,2013-04-18 07:37:00
2:53 AM,73.9,69.1,85,29.89,10.0,SE,15.0,-,N/A,,Scattered Clouds,140,2013-04-18 07:53:00
3:53 AM,73.0,68.0,84,29.87,10.0,SE,12.7,-,N/A,,Clear,140,2013-04-18 08:53:00
4:53 AM,73.0,66.9,81,29.88,10.0,SSE,10.4,-,N/A,,Clear,150,2013-04-18 09:53:00
5:53 AM,73.0,68.0,84,29.86,10.0,SE,10.4,-,N/A,,Clear,140,2013-04-18 10:53:00
6:18 AM,73.4,68.0,83,29.89,10.0,SSE,10.4,-,N/A,,Mostly Cloudy,150,2013-04-18 11:18:00
6:53 AM,73.9,68.0,82,29.88,10.0,SSE,13.8,-,N/A,,Overcast,150,2013-04-18 11:53:00
7:53 AM,73.9,69.1,85,29.87,9.0,SE,15.0,-,N/A,,Overcast,140,2013-04-18 12:53:00
8:13 AM,75.2,69.8,83,29.90,9.0,SE,15.0,-,N/A,,Overcast,140,2013-04-18 13:13:00
8:53 AM,75.0,69.1,82,29.88,10.0,SE,18.4,24.2,N/A,,Overcast,140,2013-04-18 13:53:00
9:35 AM,77.0,69.8,78,29.90,10.0,SE,17.3,24.2,N/A,,Overcast,140,2013-04-18 14:35:00
9:53 AM,77.0,69.1,76,29.87,10.0,SE,17.3,26.5,N/A,,Overcast,140,2013-04-18 14:53:00
10:53 AM,80.1,70.0,71,29.89,10.0,SSE,16.1,23.0,N/A,,Overcast,150,2013-04-18 15:53:00
11:53 AM,81.0,70.0,69,29.88,10.0,South,18.4,26.5,N/A,,Overcast,170,2013-04-18 16:53:00
12:09 PM,80.6,69.8,70,29.90,10.0,SSE,19.6,26.5,N/A,,Overcast,160,2013-04-18 17:09:00
12:18 PM,80.6,69.8,70,29.90,10.0,South,21.9,-,N/A,,Overcast,170,2013-04-18 17:18:00
12:53 PM,81.0,70.0,69,29.86,10.0,SSE,19.6,26.5,N/A,,Overcast,160,2013-04-18 17:53:00
1:07 PM,80.6,69.8,70,29.87,10.0,SSE,18.4,25.3,N/A,,Overcast,160,2013-04-18 18:07:00
1:53 PM,82.0,71.1,69,29.85,10.0,SSE,19.6,25.3,N/A,,Overcast,150,2013-04-18 18:53:00
2:53 PM,82.9,71.1,67,29.83,10.0,South,19.6,-,N/A,,Overcast,170,2013-04-18 19:53:00
3:00 PM,82.4,69.8,66,29.84,10.0,South,20.7,26.5,N/A,,Overcast,170,2013-04-18 20:00:00
3:53 PM,82.0,70.0,67,29.81,10.0,South,18.4,28.8,N/A,,Overcast,170,2013-04-18 20:53:00
4:53 PM,82.0,71.1,69,29.82,10.0,South,18.4,26.5,N/A,,Mostly Cloudy,180,2013-04-18 21:53:00
5:00 PM,82.4,71.6,70,29.84,10.0,South,21.9,27.6,N/A,,Mostly Cloudy,180,2013-04-18 22:00:00
5:53 PM,81.0,70.0,69,29.82,10.0,South,19.6,25.3,N/A,,Mostly Cloudy,170,2013-04-18 22:53:00
6:05 PM,80.6,69.8,70,29.83,10.0,South,17.3,24.2,N/A,,Mostly Cloudy,170,2013-04-18 23:05:00
6:53 PM,79.0,71.1,77,29.81,10.0,South,19.6,26.5,N/A,,Mostly Cloudy,170,2013-04-18 23:53:00
7:53 PM,78.1,71.1,79,29.81,10.0,South,19.6,-,N/A,,Overcast,170,2013-04-19 00:53:00
8:36 PM,78.8,71.6,78,29.84,10.0,South,13.8,-,N/A,,Overcast,170,2013-04-19 01:36:00
8:53 PM,78.1,71.1,79,29.82,10.0,South,18.4,-,N/A,,Overcast,170,2013-04-19 01:53:00
9:02 PM,78.8,71.6,78,29.84,10.0,South,16.1,-,N/A,,Overcast,170,2013-04-19 02:02:00
9:29 PM,78.8,71.6,78,29.86,10.0,South,15.0,-,N/A,,Overcast,180,2013-04-19 02:29:00
9:40 PM,78.8,71.6,78,29.86,10.0,South,15.0,-,N/A,,Overcast,180,2013-04-19 02:40:00
9:49 PM,78.8,71.6,78,29.87,10.0,South,17.3,27.6,N/A,,Overcast,180,2013-04-19 02:49:00
9:53 PM,78.1,71.1,79,29.85,10.0,South,16.1,27.6,N/A,,Overcast,180,2013-04-19 02:53:00
10:06 PM,78.8,71.6,78,29.86,10.0,South,17.3,-,N/A,,Overcast,180,2013-04-19 03:06:00
10:53 PM,77.0,71.1,82,29.84,9.0,South,16.1,-,N/A,,Mostly Cloudy,180,2013-04-19 03:53:00
11:53 PM,77.0,71.1,82,29.82,9.0,South,18.4,-,N/A,,Mostly Cloudy,180,2013-04-19 04:53:00